Temp
12 12 12 12 12 12 11 11 11 11 11 11 11 11 11 11 11 10 10 10 10 10 10 10 10 10 10 10 9 9 9 9 8 8 8 8 8 7 7 7 7 7 6 6 6 6 5 5 5 5 5 5 5 5 4 4 4 4 4 4 4 3 3 3 3 3 3 3 2
12 12 12 12 12 11 11 11 11 11 12 12 12 12 11 11 10 10 10 10 10 10 10 10 10 10 10 10 9 9 9 9 8 8 8 8 7 7 7 7 7 6 6 6 6 6 5 5 5 5 5 5 5 5 4 4 4 4 4 4 3 3 3 3 3 3 3 3 2
12 12 12 12 12 11 11 11 12 12 12 12 12 11 11 11 11 10 10 10 10 10 10 10 10 10 10 9 9 9 9 9 8 8 8 8 7 7 7 7 6 6 6 6 6 6 5 5 5 5 5 5 5 4 4 4 4 4 4 3 3 3 3 3 3 3 3 2 2
12 12 12 12 12 12 12 12 12 12 12 11 11 11 11 11 11 10 10 10 11 10 10 10 10 10 10 9 9 9 9 9 8 8 8 8 7 7 7 7 6 6 6 6 6 5 5 5 5 5 5 5 4 4 4 4 4 3 3 3 3 3 3 3 3 3 3 2 2
12 12 12 12 12 13 13 13 13 12 12 11 11 11 11 10 10 10 11 11 11 11 11 11 10 10 9 9 9 9 8 8 8 8 8 7 7 7 7 6 6 6 6 6 5 5 5 5 5 5 5 4 4 4 4 4 3 3 3 3 3 3 3 3 3 3 2 2 2
12 12 13 13 13 13 13 13 13 12 12 12 11 11 10 10 10 10 11 11 11 11 11 11 10 10 9 9 9 9 8 8 8 8 8 7 7 7 6 6 6 6 6 6 5 5 5 5 5 5 5 4 4 4 4 3 3 3 3 3 3 3 3 3 3 3 2 2 2
13 13 13 13 13 13 13 13 13 12 12 11 11 11 11 10 10 11 11 11 11 11 11 11 10 10 9 9 9 8 8 8 8 8 7 7 7 7 6 6 6 6 6 5 5 5 5 5 5 5 4 4 4 4 3 3 3 3 3 3 3 3 3 3 3 3 2 2 2
13 13 13 13 13 13 13 13 12 12 12 11 11 11 11 11 11 11 11 11 11 11 11 10 10 10 9 9 9 8 8 8 8 8 7 7 7 7 6 6 6 6 6 5 5 5 5 5 5 4 4 4 4 4 3 3 3 3 3 3 3 3 3 3 3 3 2 2 2
12 12 13 13 13 13 12 12 12 12 11 11 11 11 11 11 11 11 11 11 11 11 11 10 10 10 9 9 9 8 8 8 8 8 7 7 7 7 6 6 6 6 6 5 5 5 5 5 5 4 4 4 4 4 3 3 3 3 3 3 3 3 3 3 3 2 2 2 2
12 12 12 12 12 12 12 12 12 12 11 11 11 11 11 12 12 12 11 11 11 11 11 10 10 9 9 9 9 8 8 8 8 8 7 7 7 7 7 6 6 6 6 5 5 5 5 5 5 4 4 4 4 4 4 3 3 3 3 3 3 3 3 3 3 2 2 2 2
12 12 12 12 12 12 12 11 11 11 11 11 11 11 11 12 12 12 12 11 11 11 10 10 10 9 9 9 8 8 8 8 8 7 7 7 7 7 7 7 6 6 6 5 5 5 5 5 5 4 4 4 4 4 3 3 3 3 3 3 3 3 3 3 2 2 2 2 2
12 12 12 12 12 12 11 11 11 11 11 11 11 11 11 12 12 12 12 11 11 11 10 10 10 9 9 9 8 8 8 8 8 7 7 7 7 7 7 6 6 6 6 6 5 5 5 5 5 4 4 4 4 4 3 3 3 3 3 3 3 3 3 3 2 2 2 2 2
12 12 12 12 12 11 11 11 11 10 10 10 10 11 11 11 12 12 11 11 11 10 10 9 9 9 9 9 8 8 8 8 7 7 7 7 7 7 7 6 6 6 6 6 5 5 5 5 5 5 4 4 4 4 4 3 3 3 3 3 3 3 3 3 2 2 2 2 2
12 12 12 11 11 11 11 11 10 10 10 10 10 10 11 11 11 11 11 11 10 10 10 9 9 9 9 9 8 8 8 8 7 7 7 7 7 7 7 6 6 6 6 6 5 5 5 5 5 5 4 4 4 4 4 3 3 3 3 3 3 3 3 3 2 2 2 2 2
11 12 12 11 11 11 11 10 10 10 10 10 10 10 11 11 11 11 11 10 10 10 10 9 9 9 9 9 8 8 8 8 7 7 7 7 7 7 7 6 6 6 6 5 5 5 5 5 5 5 4 4 4 4 4 3 3 3 3 3 3 3 3 3 2 2 2 2 2
11 11 11 11 11 11 10 10 10 10 10 10 10 11 11 11 11 11 11 10 10 10 10 10 9 9 9 8 8 8 8 7 7 7 7 7 7 7 7 6 6 6 6 5 5 5 5 5 5 5 4 4 4 4 4 3 3 3 3 3 3 3 3 3 2 2 2 2 2
11 11 11 11 11 10 10 10 10 10 10 10 10 11 11 11 11 11 11 10 10 10 10 10 10 9 9 8 8 8 7 7 7 7 7 7 7 7 7 6 6 6 6 5 5 5 5 5 5 4 4 4 4 4 4 4 3 3 3 3 3 3 3 3 2 2 2 2 2
11 11 11 10 10 10 10 10 10 10 10 10 10 11 11 11 11 11 11 11 11 10 10 10 10 9 9 8 8 7 7 7 7 8 8 7 7 7 7 6 6 6 6 6 5 5 5 5 5 4 4 4 4 4 4 4 3 3 3 3 3 3 3 3 2 2 2 2 2
10 10 10 10 10 10 10 10 10 10 10 10 11 11 11 11 11 11 11 11 10 10 10 10 10 9 8 8 8 7 7 7 8 8 8 7 7 7 7 6 6 6 6 6 5 5 5 5 5 5 4 4 4 4 4 4 4 3 3 3 3 3 3 3 2 2 2 2 2
10 10 10 10 10 10 10 10 10 10 11 11 11 12 12 12 11 11 11 10 10 10 10 10 9 9 8 8 8 8 8 8 8 8 8 7 7 7 7 6 6 6 6 6 5 5 5 5 5 5 4 4 4 4 4 4 4 3 3 3 3 3 3 3 2 2 2 2 2
9 10 10 10 10 10 10 10 10 11 11 12 12 12 12 12 11 11 11 10 10 10 10 10 9 9 8 8 8 8 8 8 8 8 8 7 7 7 7 6 6 6 6 6 5 5 5 5 5 5 5 4 4 4 4 4 4 4 3 3 3 3 3 3 2 2 2 2 2
9 9 9 9 9 10 10 10 10 11 11 12 12 12 12 12 11 11 11 10 10 10 10 9 9 9 8 8 8 8 8 8 8 8 8 7 7 7 7 6 6 6 6 6 6 5 5 5 5 5 5 5 4 4 4 4 4 4 3 3 3 3 3 3 2 2 2 2 2
9 9 9 9 9 10 10 10 11 11 11 11 12 12 12 11 11 11 11 10 10 10 9 9 9 9 8 8 8 8 8 8 8 8 7 7 7 7 7 6 6 6 6 6 6 5 5 5 5 5 5 5 5 4 4 4 4 4 4 3 3 3 3 3 2 2 2 2 2
9 9 9 9 9 10 10 10 11 11 11 11 11 11 11 11 11 11 11 10 10 10 9 9 9 9 8 8 8 8 8 8 8 8 7 7 7 7 7 6 6 6 6 6 6 6 6 5 5 5 5 5 5 4 4 4 4 4 4 3 3 3 3 3 2 2 2 2 1
9 9 10 9 9 10 10 10 11 11 11 11 11 11 11 11 10 10 10 10 10 9 9 9 9 8 8 8 8 8 8 8 8 8 7 7 7 7 7 6 6 6 6 6 6 6 6 6 5 5 5 5 5 5 4 4 4 4 4 3 3 3 3 3 2 2 2 2 1
9 9 10 10 10 10 10 10 10 11 11 11 11 11 10 10 10 10 10 10 9 9 9 9 8 8 8 8 8 8 8 8 8 8 7 7 7 7 7 6 6 6 6 6 6 6 6 6 6 6 5 5 5 5 5 4 4 4 4 4 3 3 3 3 2 2 2 2 1
9 9 10 10 10 10 10 10 10 10 11 11 11 11 10 10 10 10 10 10 9 9 9 9 8 8 8 8 8 8 8 8 8 8 7 7 7 7 7 7 6 6 6 6 6 6 6 6 6 6 5 5 5 5 5 4 4 4 4 4 3 3 3 3 2 2 2 2 1
9 10 10 10 10 10 9 9 10 10 10 10 11 11 10 10 10 9 9 9 9 9 9 8 8 8 8 8 8 8 8 8 8 7 7 7 7 7 7 7 7 7 6 6 6 6 6 6 6 6 6 5 5 5 5 4 4 4 4 4 3 3 3 3 2 2 2 1 1
9 10 10 10 9 9 9 9 9 9 10 10 10 10 10 10 10 9 9 9 9 8 8 8 8 8 8 8 8 8 8 8 8 7 7 7 7 7 7 7 7 7 7 6 6 6 6 6 6 6 6 6 5 5 5 4 4 4 4 4 4 3 3 3 2 2 2 1 1
9 9 9 9 9 9 9 9 9 9 9 10 10 10 10 10 9 9 9 8 8 8 8 8 8 8 8 8 8 8 8 8 7 7 7 7 7 7 7 7 7 7 7 6 6 6 6 6 6 6 6 6 5 5 5 4 4 4 4 4 4 4 3 3 3 2 2 1 1
9 9 9 9 9 9 9 9 9 9 9 9 9 9 9 9 9 9 8 8 8 8 9 9 8 8 8 8 8 8 8 8 7 7 7 7 7 7 7 7 7 6 6 6 6 6 6 6 6 6 6 6 6 5 5 5 4 4 4 4 4 4 3 3 3 2 2 1 1
9 9 9 9 9 9 9 9 8 8 8 9 9 9 9 9 8 8 8 8 8 8 8 8 8 8 8 8 8 8 8 8 7 7 7 7 7 7 7 7 6 6 6 6 6 6 6 6 6 6 6 6 6 5 5 5 5 4 4 4 4 4 4 3 3 3 2 2 1
8 9 9 9 9 9 9 8 8 8 8 8 8 8 8 8 8 7 7 7 8 8 8 8 8 8 8 8 8 8 8 8 7 7 7 7 7 7 7 6 6 6 6 6 6 6 6 6 6 6 6 6 5 5 4 4 4 4 4 4 4 4 4 3 3 3 2 2 1
8 8 8 8 8 8 8 8 8 8 8 8 8 7 7 7 7 7 7 7 8 8 8 8 8 8 8 8 8 8 8 8 8 7 7 7 7 7 6 6 6 6 6 6 6 6 6 6 6 6 6 5 5 4 4 3 3 3 3 4 4 4 4 3 3 3 2 2 1
8 8 8 8 8 8 8 8 7 7 7 7 7 7 7 7 7 7 7 8 8 8 8 8 8 8 8 8 8 8 8 8 7 7 7 7 7 7 6 6 6 6 6 6 6 6 6 6 6 6 5 5 4 3 3 3 3 3 3 3 3 4 4 3 3 3 2 2 1
8 8 8 8 8 8 7 7 7 7 7 7 6 6 6 6 7 7 8 8 8 8 8 8 8 8 8 8 8 8 8 8 7 7 7 7 7 6 6 6 6 6 6 6 6 6 6 6 6 6 5 4 3 3 3 3 3 3 3 3 3 3 4 3 3 3 2 2 1
8 8 8 8 8 7 7 7 7 7 6 6 6 6 6 7 7 8 8 8 8 8 8 8 8 8 8 8 8 8 8 7 7 7 7 7 7 6 6 6 6 6 6 6 6 6 6 6 6 5 5 4 3 2 2 2 2 2 2 2 3 3 3 3 3 2 2 2 1
8 8 8 8 7 7 7 7 7 6 6 6 6 6 7 7 7 7 8 8 8 8 8 8 8 8 8 8 8 8 8 7 7 7 7 7 7 6 6 6 6 6 6 6 6 6 6 6 6 5 4 3 3 2 2 2 2 2 2 2 2 3 3 3 3 2 2 2 1
8 8 8 8 7 7 7 7 7 6 6 6 6 7 7 7 7 7 8 8 8 8 8 8 8 8 8 8 8 7 7 7 7 7 7 7 6 6 6 6 6 6 6 6 6 6 6 6 5 5 4 4 3 2 2 2 2 2 2 2 2 2 2 2 2 2 2 2 1
8 8 8 8 8 7 7 7 6 6 6 6 6 7 7 7 7 7 8 8 8 8 8 8 8 8 8 8 7 7 7 7 7 7 7 6 6 6 6 6 6 6 6 6 6 6 5 5 5 5 4 4 3 2 2 2 1 1 1 1 1 1 1 2 2 2 2 1 1
8 8 8 8 7 7 7 7 6 6 6 6 7 7 7 7 7 8 8 8 8 8 8 8 8 8 8 7 7 7 7 7 7 7 6 6 6 6 6 6 6 6 6 5 5 5 5 5 5 5 4 4 3 2 2 2 1 1 1 1 1 1 1 1 1 1 2 1 1
Height
831 832 832 833 835 836 837 838 839 840 841 842 843 844 845 846 846 847 848 849 850 852 853 854 855 856 856 857 858 859 860 862 863 864 865 865 866 866 866 867 867 867 867 867 867 868 868 868 868 869 869 869 869 870 870 870 870 871 871 871 872 872 872 872 873 873 873 873 873
830 830 831 831 833 834 836 836 837 838 839 840 841 842 843 844 845 846 848 849 850 852 853 854 855 855 855 856 857 858 859 860 862 863 864 864 865 865 866 866 866 866 866 866 867 867 867 867 868 868 868 868 869 869 869 869 870 870 870 871 871 871 872 872 872 872 872 873 873
828 828 829 830 831 833 834 834 835 836 837 838 839 841 842 843 845 846 848 849 850 852 853 853 854 854 855 855 856 857 858 859 860 861 862 863 864 865 865 865 866 866 866 866 866 866 866 867 867 867 868 868 868 868 868 869 869 869 870 870 870 871 871 871 871 872 872 872 872
826 827 827 828 829 830 831 831 833 834 836 837 838 840 841 843 844 846 847 848 850 851 851 852 853 853 854 855 855 856 857 858 859 860 861 862 863 864 864 865 865 865 865 865 865 866 866 866 866 867 867 867 867 868 868 868 868 869 869 869 870 870 870 871 871 871 871 872 872
824 825 825 826 827 828 828 830 831 833 834 836 837 839 841 842 843 845 846 847 848 849 850 851 851 852 853 854 855 855 856 857 858 859 860 861 862 863 863 864 864 864 864 865 865 865 865 866 866 866 866 867 867 867 867 868 868 868 869 869 869 869 870 870 870 870 871 871 871
821 822 823 824 825 827 828 829 830 832 833 835 837 838 840 841 842 843 844 846 847 848 848 849 850 851 852 853 854 854 855 856 856 857 858 860 861 862 862 863 863 864 864 864 864 865 865 865 865 865 866 866 866 867 867 867 868 868 868 868 868 869 869 869 869 870 870 870 870
819 820 821 823 824 826 827 828 829 831 832 834 835 837 838 839 840 842 843 844 845 846 847 848 848 849 850 851 852 853 854 854 855 856 857 858 859 860 861 862 862 863 863 864 864 864 864 864 864 865 865 865 866 866 866 867 867 867 867 868 868 868 868 868 869 869 869 869 869
817 819 820 822 823 824 825 826 828 830 831 833 834 835 836 837 839 840 842 843 844 845 845 846 847 848 849 850 851 851 852 853 854 854 856 857 858 859 860 861 861 862 863 863 863 863 863 863 864 864 864 864 865 865 866 866 866 866 867 867 867 867 867 868 868 868 868 868 868
817 818 819 821 822 823 824 825 827 828 830 831 832 833 834 836 837 839 840 841 842 843 844 845 846 846 847 848 849 850 851 851 852 853 854 855 856 857 858 859 860 861 862 862 863 863 863 863 863 863 863 863 864 864 865 865 865 866 866 866 866 866 866 867 867 867 867 867 867
815 816 818 819 821 822 823 824 826 827 828 830 831 832 833 834 836 837 838 840 841 842 843 843 844 846 846 847 848 849 850 850 851 852 853 854 855 856 857 858 859 860 861 861 862 862 862 862 862 862 862 862 863 863 864 864 864 865 865 865 865 865 865 866 866 866 866 866 866
813 814 816 817 818 820 822 823 825 826 827 828 829 830 832 833 835 836 837 838 839 841 841 842 843 845 846 847 848 848 849 849 850 851 851 852 853 854 855 857 858 859 859 860 860 861 861 860 860 861 861 861 862 862 863 863 863 864 864 864 864 864 864 865 865 865 865 865 865
811 813 814 815 817 818 820 822 823 825 826 827 828 829 830 832 833 835 836 838 839 840 841 842 843 844 846 847 848 848 848 849 849 850 850 851 852 853 854 855 856 857 858 859 859 859 859 859 859 859 860 860 861 861 861 862 862 863 863 863 863 863 863 863 863 864 864 864 864
810 811 812 814 815 816 818 820 822 823 824 826 827 828 830 831 833 835 836 837 838 840 841 843 844 845 846 847 848 848 848 848 848 849 849 850 851 852 853 854 855 856 857 857 858 858 858 858 858 858 858 859 859 860 860 861 861 861 862 862 862 862 862 862 862 862 862 862 862
808 809 811 812 813 815 817 818 820 822 823 825 826 827 829 831 833 834 836 837 838 840 841 843 845 846 847 847 848 848 848 848 848 848 848 849 850 851 852 853 854 855 855 856 856 857 857 857 857 857 857 857 858 858 859 859 860 860 861 861 861 861 861 861 861 861 861 861 861
806 808 809 810 812 813 815 817 818 820 822 824 825 827 828 830 832 833 835 837 838 840 841 843 844 845 846 847 847 848 848 848 848 848 848 848 849 850 851 852 853 853 854 855 855 856 856 856 856 856 856 856 857 857 857 858 858 859 859 859 860 860 860 860 860 860 860 860 860
805 806 807 809 810 812 814 815 817 819 821 822 823 825 827 828 830 832 834 836 837 839 840 841 842 843 844 845 846 846 847 847 847 847 847 848 848 849 850 851 852 853 853 854 854 855 855 855 856 856 856 856 856 856 856 857 857 857 858 858 858 858 858 858 858 858 858 858 858
803 804 806 807 809 810 812 813 815 817 818 820 822 823 825 827 828 831 832 834 836 837 838 839 840 841 841 842 843 844 845 845 846 846 846 847 847 848 849 850 851 852 852 853 853 854 854 854 855 855 855 855 855 855 855 855 856 856 856 856 857 857 857 857 857 857 857 857 857
801 802 804 805 807 808 810 811 813 815 817 818 820 822 824 826 827 829 831 832 833 835 836 837 838 839 839 840 841 843 843 844 844 845 845 846 847 847 848 849 850 851 851 852 852 853 853 853 853 854 854 854 853 854 854 854 854 854 855 855 855 855 855 855 855 855 855 855 856
800 801 802 804 806 807 809 811 812 814 816 818 819 821 823 825 827 828 829 831 832 833 835 836 836 837 838 839 840 841 842 843 843 844 844 845 846 847 848 849 849 850 850 851 851 851 852 852 852 852 852 852 852 852 853 853 853 853 853 853 853 853 854 854 854 854 854 854 854
798 800 801 803 805 807 809 810 812 813 815 817 819 821 822 824 826 827 828 830 831 832 833 834 835 836 837 838 839 840 841 842 842 843 844 845 845 846 847 848 848 849 849 849 849 850 850 851 851 851 851 851 851 851 851 851 851 851 852 852 852 852 852 852 852 852 852 852 852
798 800 801 803 805 807 808 810 811 812 814 816 817 819 821 823 824 826 827 829 830 832 833 833 834 835 836 837 838 839 840 840 841 842 843 844 844 845 846 846 847 847 848 848 848 848 848 849 849 849 849 849 849 850 850 850 850 850 850 850 850 850 850 850 850 850 850 851 851
798 800 802 803 805 806 807 809 810 811 813 814 816 818 819 821 822 824 825 827 828 830 831 832 833 834 835 836 837 838 838 839 840 841 842 842 843 844 844 845 845 846 846 846 846 846 847 847 847 848 848 848 848 848 848 848 848 848 848 848 848 848 848 848 849 849 849 849 849
798 800 802 803 804 806 807 808 809 811 812 813 815 816 818 819 821 822 823 824 826 828 829 831 832 833 834 835 835 836 837 838 839 840 840 841 841 842 843 843 843 843 844 844 844 844 845 845 846 846 846 846 846 846 846 847 847 847 847 847 847 847 847 847 847 847 847 847 847
798 800 801 802 804 805 806 807 808 810 812 813 814 816 817 818 819 820 821 822 824 825 827 829 830 832 833 833 834 835 836 837 837 838 839 839 840 840 841 841 841 841 842 842 842 842 843 843 844 844 844 844 845 845 845 845 845 845 845 845 845 845 845 845 845 845 845 845 846
797 799 800 801 803 804 805 806 807 809 811 812 813 815 816 817 817 818 819 820 822 824 826 827 829 830 831 832 833 834 835 835 836 836 837 838 838 838 839 839 839 839 840 840 840 840 841 841 842 842 842 843 843 843 843 843 843 843 843 843 843 843 843 843 843 843 843 844 844
796 798 799 800 801 803 803 804 806 807 809 811 812 813 815 816 816 817 818 819 820 822 824 826 828 829 830 831 832 833 833 834 834 835 836 836 837 837 838 838 838 838 838 838 838 839 839 839 840 840 841 841 841 841 841 841 841 841 841 842 842 842 842 842 842 842 842 842 842
795 796 798 799 800 801 802 803 804 806 807 809 810 812 813 814 815 816 817 818 819 821 823 825 826 828 829 830 830 831 832 832 833 834 834 835 836 836 836 836 837 837 837 837 837 837 838 838 838 838 839 839 839 839 839 839 839 840 840 840 840 840 840 840 840 840 840 840 841
793 795 796 798 799 800 801 802 803 804 806 807 808 810 812 813 814 815 816 817 818 820 822 823 825 826 827 828 829 829 830 831 832 832 833 834 834 835 835 835 835 835 835 836 836 836 836 836 837 837 837 837 837 837 837 837 837 838 838 838 838 838 838 838 838 838 838 838 839
791 793 794 796 797 798 799 800 801 802 804 805 807 808 810 811 812 813 814 816 817 819 821 822 823 825 826 826 827 828 829 830 831 831 832 833 833 834 834 834 834 834 834 834 834 835 835 835 835 835 835 835 835 836 836 836 836 836 836 836 836 836 836 836 836 836 836 837 837
789 791 793 794 795 796 797 798 800 801 802 804 805 807 808 809 811 812 813 814 816 817 819 821 822 823 823 824 825 826 828 829 829 830 831 832 832 832 833 833 833 833 833 833 833 833 833 833 833 833 833 833 834 834 833 833 833 833 833 833 833 834 834 834 834 834 835 835 836
788 790 791 792 794 795 796 797 798 800 801 802 804 805 806 808 809 810 811 813 815 816 818 819 820 821 822 823 824 825 827 828 828 829 830 830 831 831 831 831 831 831 831 831 831 831 831 831 832 832 832 832 832 832 831 831 831 831 831 831 831 831 832 832 832 832 833 833 834
788 789 790 791 793 794 795 796 798 799 800 801 802 803 805 806 807 809 810 812 814 816 817 818 819 819 821 822 823 824 826 826 827 828 828 829 829 830 830 830 830 830 830 830 830 830 830 830 830 830 830 830 830 829 829 829 829 829 829 829 829 829 829 830 830 830 831 831 831
786 788 789 791 792 793 794 796 797 798 799 800 801 802 804 805 806 808 810 811 813 814 815 816 817 818 819 821 822 823 824 825 826 826 827 828 828 828 829 829 828 828 828 828 828 828 828 828 828 828 828 828 828 827 827 827 827 827 827 827 827 827 827 827 828 828 828 829 829
785 787 788 790 791 792 793 795 796 797 798 799 800 801 803 804 806 807 809 811 812 813 814 815 816 817 818 820 821 822 823 824 824 825 826 826 827 827 827 827 827 826 826 826 826 826 826 826 826 826 826 826 826 825 825 825 825 825 825 824 824 825 825 825 825 826 826 827 827
784 786 787 789 790 791 793 794 795 796 797 798 799 801 802 803 805 806 808 810 811 812 813 814 815 817 818 819 820 821 822 822 823 824 824 825 825 826 825 825 825 825 824 824 824 824 824 824 824 824 824 824 824 824 823 823 823 823 822 822 822 822 822 823 823 823 824 824 825
783 785 786 788 789 790 791 793 794 795 796 797 798 799 801 802 804 805 807 808 810 811 812 813 815 816 817 818 819 820 821 821 822 822 823 824 824 824 823 823 823 823 823 823 823 822 822 822 822 822 822 822 822 822 821 821 821 820 820 820 820 820 820 821 821 821 822 822 823
783 784 786 787 788 789 791 792 793 794 795 796 797 798 800 801 803 804 806 807 809 810 811 813 814 815 816 817 818 819 819 820 821 821 822 822 822 822 822 822 821 821 821 821 821 821 821 821 821 821 820 820 820 819 819 818 818 818 818 817 817 818 818 818 819 819 820 820 821
783 784 785 786 788 789 790 791 792 793 794 795 797 798 800 801 803 803 804 806 807 809 810 812 813 814 815 816 817 818 818 819 820 820 821 821 821 821 820 820 820 820 820 819 819 819 819 819 818 818 818 818 817 817 816 816 816 816 815 815 815 816 816 816 817 817 818 818 818
782 783 785 786 787 788 789 791 792 793 794 795 797 798 800 801 802 803 804 805 807 808 810 811 813 814 815 816 816 817 817 818 819 819 819 819 819 819 819 818 818 818 818 818 818 817 817 817 817 816 816 816 815 815 814 814 814 813 813 813 813 814 814 814 815 815 815 816 816
781 783 784 785 787 788 789 790 791 793 794 795 797 798 800 801 802 803 804 805 807 808 810 811 812 813 814 815 815 816 817 817 818 818 818 818 818 818 817 817 816 816 816 816 816 816 815 815 815 814 814 814 813 813 812 812 812 812 812 812 812 812 812 812 813 813 813 814 814
781 782 784 785 786 788 789 790 791 793 794 795 797 798 799 800 801 802 803 805 807 808 809 810 811 812 813 814 814 815 816 816 816 816 817 816 816 816 816 815 815 814 814 814 814 814 813 813 813 813 812 812 811 811 810 810 810 810 810 810 810 810 810 810 811 811 811 811 812
Wind_Speed
33 34 32 30 30 29 29 29 32 35 35 35 34 34 34 33 32 32 33 32 30 28 25 20 16 14 13 14 13 13 13 12 11 9 8 7 6 5 4 4 3 3 3 3 3 3 3 3 2 2 2 1 1 1 2 3 3 4 4 4 4 3 3 2 2 2 2 2 2
34 35 34 33 32 30 29 32 34 36 37 36 36 35 34 34 33 32 32 32 29 26 22 18 15 14 14 15 15 15 14 13 11 10 9 8 6 5 4 4 3 3 3 3 3 3 2 2 1 1 1 1 1 2 2 3 3 4 4 4 4 4 3 3 3 2 2 2 2
35 36 35 34 33 31 30 33 35 37 37 37 36 35 34 34 33 32 32 30 27 23 19 16 15 15 15 16 16 16 14 13 11 10 9 8 6 5 5 4 4 3 3 2 2 2 2 1 1 1 1 1 2 3 3 4 4 5 5 5 4 4 4 4 3 3 3 3 3
34 36 35 35 34 33 33 35 36 37 38 37 36 35 34 33 32 31 30 29 25 21 18 16 15 16 17 17 17 16 14 13 12 10 9 8 7 6 5 4 4 4 3 2 2 2 1 1 1 2 2 2 3 4 5 5 5 6 6 6 5 4 4 4 4 4 3 3 3
34 36 36 35 35 35 35 36 36 37 37 37 36 35 33 32 31 31 30 28 24 20 18 16 16 17 18 18 17 16 15 13 12 11 9 8 7 6 5 5 4 3 3 2 2 2 2 2 2 2 3 3 4 5 5 6 6 7 7 6 6 5 5 5 5 4 4 4 4
35 36 36 36 36 36 36 36 36 36 37 37 36 35 33 32 31 32 31 28 23 20 18 17 17 18 19 18 17 16 15 14 13 11 9 8 7 6 5 5 4 3 3 2 2 2 3 3 3 3 4 4 5 5 6 7 7 8 8 7 7 6 6 6 6 5 5 5 5
37 37 37 36 36 36 36 36 36 36 36 36 36 35 34 33 33 32 30 26 22 19 19 19 19 20 20 19 18 17 16 15 13 11 9 8 7 6 6 5 4 3 3 3 3 3 3 4 4 4 5 5 6 7 8 8 8 8 9 8 8 8 7 7 6 6 6 6 6
36 37 37 37 37 37 37 36 36 35 35 34 35 35 35 34 34 32 29 24 21 20 20 20 21 21 20 20 19 18 16 15 13 11 10 8 7 7 6 5 4 3 3 3 4 4 4 4 5 5 6 6 7 8 9 9 9 10 10 9 9 8 8 8 7 7 7 7 7
35 36 36 36 37 37 37 36 35 34 33 33 35 36 36 35 34 31 28 24 22 21 21 22 22 21 20 20 19 18 16 15 13 12 10 9 8 7 6 5 4 4 4 4 5 5 5 5 5 6 7 7 8 9 10 10 10 11 11 10 10 9 9 8 8 8 8 8 8
35 36 36 36 37 37 36 35 34 34 34 33 35 36 36 35 33 30 27 24 22 22 22 23 23 22 21 20 19 17 16 14 13 12 11 10 9 7 6 5 4 4 5 5 5 6 6 6 6 7 7 8 9 10 10 11 11 12 12 11 11 10 10 9 9 9 9 9 9
36 37 36 36 37 37 36 33 33 34 34 33 34 36 36 35 33 29 26 24 23 23 23 23 23 22 21 19 18 17 15 14 13 12 11 10 9 7 6 5 5 5 5 6 6 6 6 6 7 7 8 9 10 10 11 12 12 12 12 12 12 11 11 11 10 10 10 10 10
36 36 36 36 37 37 35 33 32 33 34 32 33 35 36 35 32 28 25 24 23 23 23 23 23 21 20 19 18 16 15 14 13 12 11 10 9 7 7 6 6 6 6 7 7 6 6 6 7 7 8 9 10 11 12 12 13 13 13 13 12 12 12 12 12 11 11 11 11
36 35 35 35 36 36 35 33 33 33 33 32 33 34 35 33 30 27 25 24 23 23 23 23 21 20 19 18 17 16 15 14 13 12 11 10 9 8 8 7 7 7 8 8 7 7 6 6 6 7 8 9 10 11 12 12 13 13 14 14 13 13 13 13 13 12 12 12 12
35 35 35 35 35 35 34 34 33 32 32 31 32 33 34 32 29 27 25 24 23 23 23 22 20 18 17 16 16 15 15 14 13 12 11 10 9 8 8 8 9 9 9 9 8 7 7 6 6 7 7 8 9 10 11 12 13 13 14 14 14 14 14 14 13 13 13 13 12
34 35 35 35 35 34 34 33 32 31 31 31 32 33 33 31 29 26 25 24 23 23 22 21 19 18 17 16 15 15 15 14 14 12 11 10 9 9 9 10 10 10 10 10 9 8 8 7 7 7 7 8 9 10 11 12 13 13 14 14 14 14 14 14 14 14 14 14 13
34 35 35 34 34 33 33 33 32 32 31 32 33 33 32 30 28 27 25 24 23 23 22 20 20 19 18 17 16 16 16 15 14 12 11 10 10 10 10 10 11 11 11 11 10 9 8 8 7 7 7 8 8 9 10 11 12 13 14 14 14 14 15 15 15 15 15 14 14
34 34 34 34 34 34 34 34 33 33 33 33 34 34 32 30 28 26 25 24 23 23 22 21 20 20 20 20 19 18 17 16 14 13 11 11 11 11 11 11 11 12 12 11 11 10 9 9 8 8 8 8 9 9 10 11 12 13 13 14 14 15 15 15 16 16 16 15 14
33 34 34 34 35 35 35 35 34 34 34 34 34 33 31 29 27 26 25 24 23 22 21 22 22 22 22 22 21 19 18 16 14 12 11 11 11 11 11 11 12 12 12 12 11 11 10 10 9 9 9 9 9 10 10 11 12 13 13 14 14 15 15 16 16 17 17 16 15
33 34 34 34 35 35 35 34 34 34 35 34 34 32 30 28 26 26 25 24 23 21 22 24 24 24 23 22 21 20 18 16 14 12 11 11 11 11 11 12 12 13 13 12 12 11 11 10 10 10 10 10 10 11 11 12 12 13 13 14 15 15 16 17 17 18 18 17 16
32 33 33 33 33 33 33 33 34 34 35 35 34 32 29 28 27 26 25 24 23 23 24 26 26 24 23 22 21 19 17 15 13 12 12 12 12 12 12 13 13 13 13 13 13 12 12 11 11 11 11 12 12 12 12 13 13 14 14 15 15 16 16 17 18 18 18 18 17
31 31 32 31 31 32 32 33 34 35 35 35 33 31 30 28 28 26 25 23 23 25 26 26 25 24 23 22 21 19 17 14 13 13 13 13 13 13 13 13 14 14 14 14 14 13 13 13 13 13 13 13 13 13 13 14 14 15 15 16 16 17 17 18 19 19 19 19 18
28 29 30 30 30 32 33 34 35 35 35 34 33 31 30 29 28 26 24 24 25 27 28 27 25 24 22 21 20 18 16 14 14 13 13 14 14 14 14 14 15 15 15 15 15 15 14 14 14 14 14 14 14 14 15 15 16 16 17 17 17 17 18 18 19 20 20 19 18
26 27 28 29 30 31 33 34 34 34 33 33 32 31 30 30 28 26 25 26 27 29 28 27 25 23 22 20 19 17 16 15 14 14 15 15 15 15 16 16 16 17 17 16 16 16 16 15 15 15 15 15 15 16 16 16 17 17 18 18 18 18 19 19 20 20 20 20 19
27 28 28 29 30 31 32 33 33 32 31 31 31 31 31 30 29 28 28 28 29 30 29 27 25 23 21 20 18 17 16 16 16 16 16 16 16 17 17 17 18 18 18 17 17 17 17 17 17 17 17 17 17 17 17 17 18 18 19 19 19 19 20 20 21 21 21 21 20
28 28 29 30 30 31 32 32 32 31 30 31 31 31 31 31 30 29 30 30 30 30 29 27 25 23 21 20 19 18 17 17 17 17 17 17 18 18 18 18 18 18 18 18 18 17 17 17 17 18 18 18 18 18 18 19 19 19 20 20 20 20 20 21 21 22 22 21 20
29 29 29 30 31 31 32 32 32 31 30 30 31 31 31 31 30 30 30 31 31 30 28 26 25 23 22 21 20 19 19 18 18 18 18 18 19 19 19 19 19 19 18 18 18 18 18 18 18 18 18 19 19 19 19 20 20 20 21 21 21 21 21 21 22 22 22 22 21
29 29 30 30 31 32 32 32 32 31 31 31 31 32 31 31 30 30 31 31 31 30 28 26 24 23 22 21 21 21 20 20 19 19 19 19 19 19 19 19 19 19 18 18 19 19 19 19 19 19 19 20 20 20 21 21 21 22 22 22 22 22 22 22 22 23 23 22 21
29 30 31 31 31 32 32 32 32 32 31 31 31 32 32 31 31 31 32 32 31 30 28 26 25 24 23 23 22 22 21 20 20 20 20 20 19 19 19 19 19 18 18 18 19 19 20 20 20 20 21 21 21 22 22 22 22 23 23 23 23 23 23 23 23 23 23 22 21
31 31 31 31 31 32 32 32 32 32 32 31 31 31 32 32 32 32 33 32 32 31 29 27 26 25 25 25 24 22 21 21 20 20 20 20 20 19 19 19 19 19 19 19 19 20 21 21 21 22 22 22 23 23 23 23 24 24 24 24 24 24 24 23 23 23 23 22 21
31 31 31 31 32 32 32 32 32 32 31 31 31 31 32 33 33 33 34 34 33 31 28 27 27 27 27 26 24 23 22 21 21 21 21 21 20 20 19 19 19 19 19 20 20 21 21 22 22 23 23 24 24 25 25 25 25 25 25 25 25 25 24 24 24 24 23 22 21
30 30 30 31 31 31 31 32 31 31 31 31 31 32 33 33 34 34 34 33 32 30 28 27 28 28 27 25 23 22 21 21 21 21 21 21 20 20 20 19 20 20 21 21 21 21 22 22 23 24 24 25 26 26 26 26 26 26 26 26 26 25 25 25 24 24 23 23 22
29 29 29 29 30 30 31 31 30 31 31 31 32 33 33 34 34 34 33 32 31 30 29 29 28 27 26 24 23 21 21 21 21 21 21 20 20 20 20 20 21 22 22 22 21 21 22 22 23 24 25 26 28 28 28 28 28 27 27 27 26 26 25 25 25 24 24 23 23
28 28 28 28 28 29 29 29 30 30 31 31 32 32 32 32 32 31 31 31 30 30 30 29 28 27 25 23 22 21 20 20 21 20 20 20 19 20 20 21 23 24 24 23 22 21 21 22 23 25 26 28 29 29 29 29 28 28 28 27 27 26 26 25 25 24 24 24 24
27 27 27 27 27 27 28 28 29 30 30 30 30 31 31 30 30 29 29 30 30 29 29 29 28 26 24 22 20 20 20 20 19 19 19 19 19 20 21 23 24 25 24 23 22 21 21 22 23 25 27 29 29 29 29 28 28 28 28 28 27 26 26 25 25 25 25 25 24
27 27 26 26 26 26 27 27 28 29 29 29 29 29 29 29 29 29 29 29 29 29 28 27 26 24 22 20 19 19 19 19 19 19 19 19 20 21 22 24 25 25 24 22 21 21 21 22 23 26 27 28 28 27 27 28 28 28 28 28 27 27 26 25 25 25 25 25 25
27 27 27 26 26 26 26 27 27 27 28 28 28 28 28 28 28 29 29 29 29 28 28 27 25 23 21 20 19 19 19 19 19 19 19 19 20 21 22 24 24 24 23 21 21 20 21 22 24 25 26 26 26 26 26 27 28 28 28 28 27 27 26 25 25 26 26 26 26
26 27 28 27 26 26 26 26 26 26 27 28 28 28 28 27 28 28 28 28 29 28 28 26 24 22 21 19 19 18 18 18 18 19 19 20 20 21 22 23 23 23 22 21 20 20 21 22 23 24 25 25 24 25 25 26 27 27 27 27 27 26 26 25 26 26 27 27 27
26 27 27 27 26 25 25 25 26 26 26 27 27 27 27 27 27 27 28 28 28 28 27 25 23 21 19 18 18 18 18 18 18 18 19 20 21 21 22 22 23 23 22 21 21 21 21 22 22 22 23 23 23 23 24 24 25 25 26 26 26 26 26 26 26 27 28 28 28
26 27 27 27 26 25 24 24 25 26 26 26 25 25 25 25 25 26 27 27 27 26 25 23 21 19 18 18 18 18 18 18 18 19 19 20 21 21 21 22 23 23 23 22 22 21 21 22 22 22 22 22 22 22 22 23 23 24 25 25 25 25 25 26 27 28 29 29 29
25 26 27 26 25 24 23 23 23 24 24 24 23 23 23 24 24 25 26 26 25 24 23 21 19 18 17 18 18 18 18 18 18 19 20 21 21 21 21 22 23 23 23 22 22 21 21 21 22 21 21 21 21 21 21 21 22 23 24 24 24 24 24 26 27 28 29 30 30
24 25 25 24 23 23 22 21 21 22 22 22 22 22 23 24 25 25 25 24 23 22 20 18 18 17 17 17 17 17 17 18 19 20 21 21 21 21 21 22 23 23 23 23 22 22 22 22 22 22 21 21 21 20 21 21 21 22 23 24 24 24 24 25 26 28 29 30 31
Wind_Direction
202 197 193 190 189 186 185 187 187 187 187 188 188 189 189 189 189 188 187 185 184 183 183 186 191 195 196 194 190 186 183 182 180 177 175 172 169 164 160 157 153 148 139 133 126 121 116 110 107 109 113 119 148 170 173 172 169 169 171 172 169 166 162 160 155 153 156 162 171
203 198 194 192 190 188 187 189 191 191 191 192 193 193 192 192 190 189 187 186 184 184 185 190 196 198 195 190 186 183 182 180 178 176 173 172 170 168 166 164 159 154 147 139 133 128 126 124 126 136 159 192 218 215 208 202 194 188 187 187 184 181 177 177 178 182 188 194 205
203 199 196 194 191 189 190 193 194 194 194 194 194 194 193 192 191 190 188 186 185 186 190 196 199 197 191 186 183 182 180 179 178 175 173 172 172 172 171 168 164 158 153 146 143 143 145 149 168 211 235 239 234 227 220 212 205 198 195 196 195 193 190 190 195 201 207 213 223
205 201 198 196 194 194 195 197 198 197 196 195 194 194 193 192 191 190 188 186 186 190 196 201 199 193 188 185 182 180 178 177 176 175 174 174 174 173 172 169 166 162 159 157 162 170 178 195 218 239 244 243 237 229 221 212 205 200 199 202 205 204 202 203 208 214 219 223 235
206 203 201 199 199 200 202 203 201 199 198 196 195 194 193 192 191 190 188 187 189 194 201 203 198 191 187 185 182 179 177 175 175 174 175 175 174 172 170 169 167 167 167 172 185 197 210 224 235 237 237 236 233 226 219 211 203 200 201 207 210 210 210 212 216 222 229 235 245
206 204 204 203 204 205 206 206 204 202 200 198 196 194 193 192 192 190 189 189 193 198 202 200 195 190 186 184 182 179 176 174 173 174 174 174 172 169 167 167 168 172 178 190 203 216 225 234 237 236 232 228 224 217 211 206 202 202 204 208 211 214 216 217 224 231 237 244 251
205 205 205 206 206 206 207 207 207 204 202 199 197 196 195 194 192 191 190 192 196 200 200 197 193 189 186 184 182 180 177 174 173 172 172 170 167 165 166 167 171 178 191 206 217 225 232 238 236 231 226 221 215 210 208 208 207 207 209 211 214 217 219 222 230 238 244 249 254
206 206 206 207 207 207 208 208 207 204 201 199 198 197 197 195 193 192 192 195 199 200 199 195 192 189 187 185 183 180 178 175 173 171 168 167 165 163 164 166 174 186 202 217 226 231 235 238 236 229 223 219 215 212 212 212 213 214 214 216 219 222 225 228 236 243 248 252 256
206 206 207 208 208 208 208 209 207 204 201 199 199 198 198 197 194 193 193 197 200 200 197 194 192 190 189 187 184 182 180 177 173 169 167 165 164 163 163 165 176 192 209 221 230 234 237 238 234 229 225 222 220 218 218 218 218 219 221 222 224 227 231 236 240 245 250 254 256
206 206 207 207 208 208 208 208 206 204 202 200 200 199 198 197 195 194 196 199 200 199 196 193 191 190 188 187 185 183 181 178 174 169 166 164 163 162 162 165 178 195 210 220 228 233 235 236 232 229 227 226 224 224 224 223 223 224 225 227 230 232 235 240 245 248 251 253 255
207 207 207 207 208 208 207 205 204 203 201 200 199 199 198 197 196 196 198 200 199 197 195 194 191 189 188 187 185 184 181 178 174 169 165 163 161 160 162 167 180 195 209 217 224 227 230 230 228 227 226 226 226 226 227 227 227 227 229 232 234 236 238 242 247 249 251 253 253
208 208 208 208 208 207 205 202 202 201 200 198 198 198 197 196 196 197 199 200 198 197 195 193 191 189 188 187 186 184 182 178 174 170 166 163 161 162 165 173 183 196 207 214 218 221 223 224 223 223 223 224 225 226 228 229 229 230 231 234 237 239 241 244 248 250 252 253 252
208 207 207 207 207 206 204 202 201 199 198 197 197 196 196 195 196 198 199 198 197 195 192 190 190 189 189 188 187 185 183 179 175 170 166 164 164 167 173 180 189 198 206 212 215 217 218 219 221 221 222 223 225 227 229 230 231 232 233 236 238 241 244 247 249 251 252 252 252
207 207 206 206 206 205 203 200 199 197 195 194 195 194 194 194 196 197 197 196 195 193 189 187 187 189 191 191 190 188 185 181 177 173 169 169 171 176 181 188 196 202 208 212 215 216 217 219 221 222 223 225 226 228 229 231 233 234 236 239 241 244 247 249 251 252 252 251 252
206 206 207 206 205 203 201 198 197 195 193 192 193 193 193 193 195 195 195 194 193 191 188 187 188 191 194 195 195 192 188 184 179 176 175 176 181 185 190 195 201 207 211 214 216 218 220 221 222 225 227 228 228 229 230 232 235 237 239 242 246 249 250 251 252 252 252 253 253
205 206 206 205 203 200 198 196 196 194 193 192 193 193 193 193 193 193 192 192 191 191 190 191 192 193 195 196 197 195 190 186 183 182 183 186 190 193 197 202 207 211 215 217 219 221 223 225 227 230 231 230 230 230 231 233 236 239 242 245 248 251 252 253 252 253 254 255 254
204 204 204 203 201 199 197 196 195 194 193 192 192 192 192 192 192 192 191 192 191 192 193 197 198 197 195 195 195 194 191 188 187 188 192 196 199 201 203 207 211 215 218 221 222 224 225 228 231 234 235 234 233 233 234 236 238 241 243 246 249 251 253 253 252 253 254 255 255
203 203 202 201 200 199 198 196 195 194 193 192 192 192 193 193 192 191 191 192 193 197 202 202 202 200 196 194 193 193 192 192 193 196 201 204 206 207 209 212 216 219 222 225 227 228 229 231 233 236 237 237 237 237 237 238 240 242 244 246 249 251 252 251 251 252 253 254 256
202 202 201 200 199 198 197 195 194 193 192 192 193 193 194 193 192 191 191 193 198 206 211 206 203 199 196 194 193 193 194 196 199 203 208 210 211 213 214 217 220 223 225 228 231 232 233 234 236 238 239 240 240 241 240 241 242 243 245 247 249 251 251 250 251 252 253 255 257
202 201 199 198 197 196 194 194 193 193 193 194 194 194 194 194 193 192 192 196 204 211 213 207 201 197 195 195 194 194 196 200 205 209 212 214 215 217 219 221 224 226 228 231 233 235 236 237 239 241 242 243 243 243 243 243 244 245 246 248 249 251 251 250 251 252 253 255 257
200 200 198 197 195 194 193 194 194 194 195 195 196 195 195 193 193 193 196 202 208 211 209 205 201 197 195 194 195 196 199 203 208 212 214 216 218 221 223 225 227 229 231 233 235 236 238 239 242 243 245 246 247 247 247 246 246 247 248 249 250 252 252 251 251 252 253 255 256
198 198 197 196 195 194 194 194 195 195 195 196 196 196 194 193 194 196 201 207 210 209 206 203 201 199 196 195 196 198 201 206 210 213 216 218 221 223 225 227 229 231 233 235 237 238 239 241 244 246 247 248 249 250 250 250 249 249 249 251 252 253 253 252 252 252 253 255 256
197 196 196 196 196 195 195 195 195 196 196 196 196 197 196 195 197 201 205 208 208 205 203 202 202 200 199 197 198 201 204 207 211 214 217 220 222 224 226 228 230 232 234 237 238 240 241 242 245 247 249 250 251 252 252 252 252 251 251 252 253 253 253 252 253 253 254 254 255
198 197 197 196 196 196 196 197 198 199 201 201 200 199 199 199 201 204 206 205 204 202 201 201 201 201 200 200 201 204 207 210 212 214 217 220 223 225 226 228 230 233 236 240 242 243 244 245 246 248 249 251 253 254 254 254 253 253 253 253 254 253 253 253 254 254 254 254 254
200 200 199 197 197 197 198 200 202 204 206 207 204 202 201 202 204 204 203 202 200 200 200 200 200 200 200 202 204 207 210 213 215 216 219 221 224 226 228 230 232 235 239 243 246 248 249 250 251 252 253 253 254 255 256 255 255 254 254 254 255 254 253 253 253 254 254 253 253
200 200 200 199 199 199 199 201 204 208 210 210 207 205 203 204 204 204 202 199 199 199 199 199 199 200 201 203 206 210 213 216 218 220 221 224 226 228 230 233 236 240 243 247 249 251 252 253 254 256 257 257 257 256 256 256 256 256 255 255 255 254 253 252 252 253 253 253 252
200 200 201 202 201 200 201 202 205 208 211 212 210 207 206 205 204 203 201 200 199 199 199 199 200 201 203 205 209 212 215 217 219 222 224 227 229 231 234 237 242 246 250 253 254 254 254 255 256 257 258 259 259 258 257 257 257 257 256 255 255 254 254 253 253 252 252 251 250
200 202 203 203 202 202 202 203 204 206 209 211 211 210 208 206 205 203 202 201 200 199 198 199 201 203 205 208 211 214 217 219 221 224 227 230 233 236 240 244 248 253 257 259 260 259 258 257 257 258 259 260 260 260 259 259 258 258 257 256 255 255 255 254 254 252 250 249 247
202 203 204 204 203 203 203 203 203 205 208 210 211 210 209 207 205 204 203 201 200 198 198 200 202 205 207 210 213 216 219 221 224 226 229 232 235 240 244 249 254 259 263 265 264 263 261 260 259 260 260 261 260 259 259 258 258 259 259 258 257 256 255 254 253 251 249 247 244
203 203 203 204 204 204 204 204 205 206 207 209 209 209 208 207 206 205 203 201 200 200 201 203 204 206 208 211 214 217 220 223 226 229 232 235 239 243 249 254 260 264 268 269 268 266 263 262 261 261 262 262 261 260 259 259 259 260 260 260 260 258 257 255 253 251 248 245 242
203 203 203 204 205 206 206 206 206 206 207 207 208 208 208 207 206 205 203 202 201 202 204 206 206 208 210 213 215 218 221 225 228 231 234 238 242 248 254 260 265 270 273 274 273 270 266 264 263 263 263 263 262 260 259 260 261 261 262 262 262 261 259 257 254 251 247 244 241
202 202 203 204 205 207 207 207 207 206 206 206 207 207 207 207 206 205 204 203 202 203 204 206 207 209 211 214 217 220 224 228 231 234 238 242 247 253 259 265 270 274 276 277 276 273 269 266 264 264 264 264 262 261 260 260 261 262 263 264 263 263 261 258 255 251 247 243 240
201 202 203 204 206 207 208 207 206 206 205 205 206 206 206 205 205 204 203 203 203 204 204 206 207 209 212 214 218 222 226 231 234 238 242 246 251 258 264 270 274 278 279 280 278 275 271 268 266 265 265 264 262 260 259 260 261 262 264 264 264 263 262 259 256 252 248 244 240
200 201 202 204 206 207 207 207 206 205 205 204 205 205 204 204 202 202 202 204 205 205 206 207 209 211 213 217 220 225 230 234 238 241 245 250 255 262 268 274 278 281 282 282 280 276 272 269 267 266 265 263 261 260 261 262 263 264 264 264 264 263 261 258 256 253 248 244 241
199 200 202 204 206 207 207 206 205 204 204 204 204 204 204 203 203 204 205 206 206 207 208 209 211 213 216 220 224 229 233 237 240 243 247 253 260 267 273 278 281 283 284 283 281 278 275 272 271 269 268 266 264 263 264 265 265 265 265 264 263 262 260 257 254 252 248 245 241
200 201 202 204 205 206 206 205 204 204 204 204 204 204 204 205 206 207 208 208 207 207 208 210 212 214 218 222 227 231 235 239 242 245 250 257 265 272 277 280 282 283 283 283 283 281 279 278 277 276 274 271 268 266 266 266 265 264 264 262 261 260 259 256 253 250 247 244 241
201 202 203 204 205 205 205 205 204 203 204 205 205 205 205 206 207 208 208 207 206 207 208 210 212 215 219 224 229 233 237 240 243 248 254 262 269 275 279 280 281 282 283 284 284 283 282 282 281 282 280 277 271 268 266 264 263 262 260 259 259 258 258 255 252 249 246 244 242
202 203 205 205 205 205 206 205 204 204 204 205 206 207 207 207 206 206 207 207 206 206 208 211 214 218 223 228 233 237 239 242 246 252 260 266 271 275 277 279 280 281 282 284 284 284 283 282 282 283 282 279 273 268 265 262 260 259 257 257 257 257 256 254 251 248 245 244 244
203 205 206 206 206 206 206 206 206 206 206 206 206 206 206 205 205 206 207 207 207 208 210 213 217 221 227 232 236 238 241 245 251 258 264 268 271 273 276 278 280 281 282 284 284 283 283 282 281 282 281 279 275 270 265 261 258 256 256 255 255 255 255 254 251 248 246 245 245
206 206 206 207 207 207 207 206 206 207 207 205 204 204 204 204 205 207 209 209 209 210 213 216 221 226 231 234 237 240 244 251 257 262 267 269 271 273 275 277 279 281 283 284 284 283 282 281 280 280 280 278 274 269 264 259 256 254 254 254 253 253 252 253 252 250 248 246 245
207 206 206 206 207 207 206 205 205 206 206 205 203 203 204 206 207 209 209 209 209 211 214 219 224 228 232 235 238 244 250 257 262 265 268 270 272 274 276 278 280 282 284 284 284 283 282 280 279 279 279 277 272 267 262 258 253 251 251 253 253 252 251 252 253 252 250 248 246